This is the latest recevied weather packets stored in our database for station/object WX0ABE-13. If no packets are shown the sender has not sent any weather packets the latest 10 day(s).
| Time | Temp. | Humidity | Pressure | Rain* | Wind** | Luminosity | Snow |
|---|---|---|---|---|---|---|---|
| 1788006617 | 20° C | 68% | 1016.4 hPa | 0 mm | - | 9 W/m² | - |
| 1788006317 | 20° C | 67% | 1016.2 hPa | 0 mm | - | 9 W/m² | - |
| 1788006015 | 20° C | 67% | 1016.5 hPa | 0 mm | - | 4 W/m² | - |
| 1788005710 | 20° C | 67% | 1016.2 hPa | 0 mm | - | 2 W/m² | - |
| 1788005418 | 20° C | 67% | 1016.3 hPa | 0 mm | - | 1 W/m² | - |
| 1788005104 | 20° C | 67% | 1016.1 hPa | 0 mm | - | 0 W/m² | - |
| 1788004803 | 20° C | 67% | 1016.2 hPa | 0 mm | - | 0 W/m² | - |
| 1788004497 | 20° C | 66% | 1015.9 hPa | 0 mm | - | 0 W/m² | - |
| 1788004197 | 19.44° C | 68% | 1015.9 hPa | 0 mm | - | 0 W/m² | - |
| 1788003896 | 18.89° C | 69% | 1015.9 hPa | 0 mm | - | 0 W/m² | - |
| 1788003591 | 18.89° C | 73% | 1016.3 hPa | 0 mm | - | 0 W/m² | - |
| 1788003286 | 18.89° C | 72% | 1016.1 hPa | 0 mm | - | 0 W/m² | - |
| 1788002986 | 19.44° C | 71% | 1015.9 hPa | 0 mm | - | 0 W/m² | - |
| 1788002680 | 18.89° C | 70% | 1015.9 hPa | 0 mm | - | 0 W/m² | - |
| 1788002376 | 18.89° C | 71% | 1015.9 hPa | 0 mm | - | 0 W/m² | - |
| 1788002071 | 19.44° C | 70% | 1016.2 hPa | 0 mm | - | 0 W/m² | - |
| 1788001771 | 19.44° C | 69% | 1016.1 hPa | 0 mm | - | 0 W/m² | - |
| 1788001466 | 20° C | 67% | 1016.2 hPa | 0 mm | - | 0 W/m² | - |
| 1788001166 | 20° C | 66% | 1016.1 hPa | 0 mm | - | 0 W/m² | - |
| 1788000861 | 20.56° C | 65% | 1015.9 hPa | 0 mm | - | 0 W/m² | - |
| 1788000557 | 20.56° C | 64% | 1016.1 hPa | 0 mm | - | 0 W/m² | - |
| 1788000257 | 20.56° C | 64% | 1015.9 hPa | 0 mm | - | 0 W/m² | - |
| 1787999952 | 20.56° C | 64% | 1016.1 hPa | 0 mm | - | 0 W/m² | - |
| 1787999649 | 20.56° C | 64% | 1015.9 hPa | 0 mm | - | 0 W/m² | - |
| 1787999346 | 20.56° C | 64% | 1015.6 hPa | 0 mm | - | 0 W/m² | - |
* Rain latest hour (hover to see other rain measurements)
** Current wind speed in m/s (hover to see current wind gust speed)